Weather History for Rogers, AR

Change the Weather History Date:

Tuesday, June 18, 2013

  Actual Average Record
Temperature  
Mean Temperature 73 °F -  
Max Temperature 86 °F 79 °F 93 °F (2012)
Min Temperature 60 °F 62 °F 53 °F (1999)
Cooling Degree Days 8    
Growing Degree Days 23 (Base 50)    
Moisture  
Dew Point 63 °F    
Average Humidity 87    
Maximum Humidity 100    
Minimum Humidity 40    
Precipitation  
Precipitation 0.00 in - - ()
Sea Level Pressure  
Sea Level Pressure 30.01 in    
Wind  
Wind Speed 3 mph (NNE)    
Max Wind Speed 10 mph    
Max Gust Speed 17 mph    
Visibility 4 miles    
Events Fog    
Averages and records for this station are not official NWS values.
T = Trace of Precipitation, MM = Missing Value Source: NWS Daily Summary

Daily Weather History Graph

Daily Weather History Graph

Search for Another Location

Airport:

Trip Planner

Search our weather history database for the weather conditions in past years. The results will help you decide how hot, cold, wet, or windy it might be!

Date:

Astronomy

Jun. 18, 2013 Rise Set
Actual Time 5:58 AM CDT 8:36 PM CDT
Civil Twilight 5:27 AM CDT 9:07 PM CDT
Nautical Twilight 4:50 AM CDT 9:45 PM CDT
Astronomical Twilight 4:07 AM CDT 10:27 PM CDT
Moon 3:28 PM CDT (6/18) 1:59 AM CDT (6/18)
Length of Visible Light 15h 39m
Length of Day
14h 38m
Waxing Gibbous, 71% of the Moon is Illuminated
Jun 18
Waxing Gibbous
Jun 23
Full
Jun 29
Last Quarter
Jul 8
New
Jul 15
First Quarter

Hourly Weather History & Observations

Time (CDT) Temp. Heat Index Dew Point Humidity Pressure Visibility Wind Dir Wind Speed Gust Speed Precip Events Conditions
12:57 AM 66.9 °F - 64.9 °F 93% 29.99 in 10.0 mi Calm Calm - N/A   Clear
1:21 AM 66.2 °F - 64.4 °F 94% 30.03 in 10.0 mi NNW 4.6 mph - N/A   Mostly Cloudy
1:46 AM 66.2 °F - 64.4 °F 94% 30.01 in 10.0 mi NNW 3.5 mph - N/A   Scattered Clouds
1:57 AM 66.0 °F - 64.0 °F 93% 29.97 in 10.0 mi NNW 3.5 mph - N/A   Partly Cloudy
2:08 AM 64.4 °F - 62.6 °F 94% 30.00 in 1.8 mi Calm Calm - N/A   Clear
2:17 AM 64.4 °F - 62.6 °F 94% 30.00 in 1.0 mi Calm Calm - N/A   Clear
2:26 AM 64.4 °F - 62.6 °F 94% 29.99 in 0.8 mi Calm Calm - N/A   Clear
2:43 AM 64.4 °F - 62.6 °F 94% 29.98 in 0.5 mi Calm Calm - N/A Fog Fog
2:52 AM 64.4 °F - 62.6 °F 94% 29.99 in 0.8 mi WSW 3.5 mph - N/A   Mist
2:54 AM 64.4 °F - 62.6 °F 94% 29.99 in 1.2 mi Calm Calm - N/A   Partly Cloudy
2:57 AM 64.0 °F - 62.1 °F 93% 29.96 in 1.8 mi WNW 3.5 mph - N/A   Partly Cloudy
3:02 AM 64.4 °F - 62.6 °F 94% 29.99 in 0.8 mi WNW 3.5 mph - N/A   Mist
3:04 AM 64.4 °F - 62.6 °F 94% 29.99 in 0.5 mi WNW 3.5 mph - N/A Fog Fog
3:11 AM 64.4 °F - 62.6 °F 94% 29.99 in 0.2 mi NW 3.5 mph - N/A Fog Fog
3:24 AM 62.6 °F - 60.8 °F 94% 29.99 in 0.5 mi Calm Calm - N/A Fog Fog
3:27 AM 62.6 °F - 60.8 °F 94% 29.99 in 1.0 mi Calm Calm - N/A   Overcast
3:34 AM 62.6 °F - 60.8 °F 94% 29.99 in 0.5 mi Calm Calm - N/A Fog Fog
3:57 AM 63.0 °F - 61.0 °F 93% 29.96 in 0.5 mi Calm Calm - N/A Fog Fog
4:40 AM 62.6 °F - 60.8 °F 94% 30.00 in 0.2 mi NE 3.5 mph - N/A Fog Fog
4:53 AM 62.6 °F - 60.8 °F 94% 30.00 in 0.5 mi NNE 4.6 mph - N/A Fog Fog
4:57 AM 62.1 °F - 61.0 °F 96% 29.98 in 0.5 mi North 3.5 mph - N/A Fog Fog
5:05 AM 62.6 °F - 60.8 °F 94% 30.01 in 0.8 mi North 3.5 mph - N/A   Mostly Cloudy
5:08 AM 62.6 °F - 60.8 °F 94% 30.01 in 0.5 mi North 3.5 mph - N/A Fog Fog
5:11 AM 62.6 °F - 60.8 °F 94% 30.01 in 0.8 mi North 3.5 mph - N/A   Mostly Cloudy
5:14 AM 62.6 °F - 60.8 °F 94% 30.01 in 1.0 mi North 3.5 mph - N/A   Mist
5:18 AM 62.6 °F - 60.8 °F 94% 30.02 in 1.8 mi North 3.5 mph - N/A   Scattered Clouds
5:22 AM 62.6 °F - 60.8 °F 94% 30.02 in 2.0 mi North 3.5 mph - N/A   Partly Cloudy
5:32 AM 62.6 °F - 60.8 °F 94% 30.02 in 3.0 mi Calm Calm - N/A   Scattered Clouds
5:35 AM 60.8 °F - 60.8 °F 100% 30.02 in 3.0 mi Calm Calm - N/A   Mostly Cloudy
5:37 AM 60.8 °F - 60.8 °F 100% 30.02 in 1.8 mi NE 3.5 mph - N/A   Mostly Cloudy
5:41 AM 60.8 °F - 60.8 °F 100% 30.02 in 0.8 mi NE 3.5 mph - N/A   Mostly Cloudy
5:43 AM 60.8 °F - 60.8 °F 100% 30.02 in 0.2 mi NNE 4.6 mph - N/A Fog Fog
5:57 AM 62.1 °F - 61.0 °F 96% 30.00 in 0.2 mi NE 4.6 mph - N/A Fog Fog
6:40 AM 64.4 °F - 62.6 °F 94% 30.02 in 0.5 mi North 5.8 mph - N/A Fog Fog
6:46 AM 64.4 °F - 62.6 °F 94% 30.02 in 0.2 mi NNE 5.8 mph - N/A Fog Fog
6:57 AM 64.0 °F - 63.0 °F 96% 30.00 in 0.2 mi North 4.6 mph - N/A Fog Fog
7:25 AM 64.4 °F - 62.6 °F 94% 30.02 in 0.5 mi NNE 3.5 mph - N/A Fog Fog
7:31 AM 64.4 °F - 62.6 °F 94% 30.03 in 0.2 mi NNE 3.5 mph - N/A Fog Fog
7:41 AM 64.4 °F - 64.4 °F 100% 30.03 in 0.5 mi North 6.9 mph - N/A Fog Fog
7:46 AM 64.4 °F - 64.4 °F 100% 30.03 in 0.8 mi NNW 3.5 mph - N/A   Overcast
7:49 AM 64.4 °F - 64.4 °F 100% 30.04 in 1.0 mi North 4.6 mph - N/A   Overcast
7:54 AM 64.4 °F - 64.4 °F 100% 30.04 in 1.5 mi North 5.8 mph - N/A   Overcast
7:57 AM 66.2 °F - 64.4 °F 94% 30.04 in 2.0 mi NNE 4.6 mph - N/A   Overcast
7:59 AM 66.2 °F - 64.4 °F 94% 30.05 in 4.0 mi North 5.8 mph - N/A   Overcast
8:33 AM 66.2 °F - 66.2 °F 100% 30.04 in 8.0 mi North 4.6 mph - N/A   Mostly Cloudy
8:57 AM 69.1 °F - 68.0 °F 96% 30.03 in 9.0 mi NNE 3.5 mph - N/A   Overcast
9:10 AM 69.8 °F - 69.8 °F 100% 30.07 in 10.0 mi Calm Calm - N/A   Mostly Cloudy
9:24 AM 71.6 °F - 69.8 °F 94% 30.06 in 10.0 mi NE 3.5 mph - N/A   Scattered Clouds
9:57 AM 73.9 °F - 70.0 °F 87% 30.04 in 10.0 mi Calm Calm - N/A   Partly Cloudy
10:57 AM 79.0 °F - 68.0 °F 69% 30.04 in 10.0 mi ENE 6.9 mph - N/A   Clear
11:57 AM 82.0 °F 84.9 °F 68.0 °F 62% 30.03 in 10.0 mi East 4.6 mph - N/A   Clear
12:57 PM 84.0 °F 85.8 °F 64.9 °F 53% 30.03 in 10.0 mi East 8.1 mph - N/A   Clear
1:57 PM 84.0 °F 85.8 °F 64.9 °F 53% 30.02 in 10.0 mi East 6.9 mph - N/A   Clear
2:57 PM 84.0 °F 85.8 °F 64.9 °F 53% 30.01 in 10.0 mi SE 9.2 mph - N/A   Clear
3:57 PM 84.9 °F 87.1 °F 66.0 °F 53% 29.98 in 10.0 mi East 6.9 mph - N/A   Clear
4:57 PM 84.9 °F 86.1 °F 64.0 °F 49% 29.97 in 10.0 mi East 5.8 mph - N/A   Clear
5:57 PM 86.0 °F 85.4 °F 59.0 °F 40% 29.96 in 10.0 mi East 10.4 mph 17.3 mph N/A   Clear
6:57 PM 84.9 °F 85.0 °F 61.0 °F 44% 29.98 in 10.0 mi East 5.8 mph - N/A   Clear
7:57 PM 82.0 °F 83.4 °F 64.0 °F 54% 29.99 in 10.0 mi ESE 4.6 mph - N/A   Clear
8:57 PM 75.9 °F - 64.9 °F 69% 30.00 in 10.0 mi Calm Calm - N/A   Clear
9:57 PM 72.0 °F - 63.0 °F 73% 30.00 in 10.0 mi South 4.6 mph - N/A   Clear
10:57 PM 70.0 °F - 63.0 °F 78% 30.00 in 10.0 mi Calm Calm - N/A   Clear
11:57 PM 70.0 °F - 66.0 °F 87% 30.00 in 10.0 mi ESE 5.8 mph - N/A   Clear